Location: ????????
(55.3155°N, 39.2900°E)
Time: 06:42:11
(UTC+00:00)

NOSS 3-1 (A) - Pass Details

Date: 14 April 2024
Orbit: 660 x 1550 km, 63.4° (Epoch: 15 May)

Event Time Altitude Azimuth Distance (km) Brightness Sun altitude
Rises 01:26:46 0° 308° (NW) 3,667 6.3 -7.9°
Reaches altitude 10° 01:29:07 10° 308° (NW) 2,832 5.7 -7.6°
Maximum altitude 01:35:58 90° 266° (W) 1,213 4.0 -6.7°
Drops below altitude 10° 01:44:29 10° 132° (SE) 3,474 6.7 -5.6°
Sets 01:47:38 0° 132° (SE) 4,542 7.3 -5.2°
